Theta_e
334 336 335 334 331 333 332 333 332 331 332 332 332 332 332 332 331 331 329 329 330 330 329 329 327 328 327 327 327 329 329 331 332 331 331 331 334 332 331 332 330 332 331 332 332 332 330 330 331 330 333 331 329 328 326 325 324 323 323 319 317 319 317 316 313 312 317 320 317 312 314 315 314 315 314 315 314 314 314 318 314 313 311 312 308
334 334 333 331 330 331 333 333 332 331 332 332 331 331 331 331 332 330 330 329 329 327 328 329 327 327 326 325 326 327 328 328 330 331 329 330 331 333 332 329 327 326 328 326 328 331 331 331 331 330 331 329 329 324 324 325 321 320 319 318 315 316 320 315 313 313 313 318 316 315 313 315 312 315 315 316 314 314 312 316 315 315 313 314 312
332 333 331 332 332 332 330 331 330 331 331 331 331 330 331 331 330 330 329 328 329 328 328 325 325 325 326 326 326 327 328 328 330 329 329 328 327 328 328 327 326 326 326 326 326 332 331 330 329 331 330 329 327 325 324 322 320 318 318 316 316 317 317 316 315 314 314 315 319 315 315 314 315 313 315 316 316 314 312 313 315 315 315 315 314
331 332 332 330 334 331 330 328 331 330 330 331 332 332 330 330 329 329 328 327 327 329 326 324 323 326 326 326 327 327 327 329 329 327 326 326 325 325 326 327 326 326 326 324 323 325 327 329 329 331 331 328 327 325 323 322 320 318 317 319 318 314 319 319 318 317 315 314 316 315 315 315 314 316 315 316 316 315 314 313 315 316 316 315 315
329 331 329 331 328 331 330 331 331 330 330 330 331 331 331 329 329 328 328 328 327 326 323 324 324 325 327 325 325 326 326 327 326 325 326 326 325 325 325 324 326 324 325 323 326 323 324 324 327 331 331 330 327 324 323 323 320 319 317 317 318 317 320 318 319 318 316 315 315 316 317 316 317 317 317 314 314 316 316 315 315 315 316 317 317
328 327 328 327 332 331 330 330 330 329 328 330 331 331 330 329 329 331 327 327 326 324 323 323 322 323 323 324 323 323 324 325 325 325 325 325 325 325 325 325 324 324 324 323 322 324 324 323 324 325 331 327 327 325 326 323 320 320 318 318 317 319 321 319 320 319 317 316 317 313 317 315 315 316 317 317 315 314 315 316 317 317 316 317 316
327 327 330 330 331 330 329 328 328 329 330 330 330 330 329 329 330 328 327 326 324 323 322 322 323 323 322 323 323 323 322 322 324 325 325 325 325 324 324 324 324 324 323 322 323 324 325 324 325 325 325 329 329 328 326 324 323 322 321 322 318 319 318 319 317 317 318 317 316 318 316 317 319 316 316 318 317 316 315 315 315 315 317 316 316
329 330 332 331 331 329 328 328 328 329 330 330 329 329 329 328 328 327 326 324 323 321 320 320 322 323 324 323 323 323 323 322 322 322 323 324 325 325 324 325 324 324 324 323 324 324 325 324 324 324 324 325 327 327 331 326 325 323 324 322 322 321 320 319 319 317 317 317 316 317 317 317 316 317 317 316 315 314 314 314 313 314 315 318 317
328 329 330 329 329 329 330 328 329 329 328 328 328 328 328 327 325 325 323 322 322 320 321 320 321 322 322 323 322 324 324 318 312 310 315 320 322 324 325 324 324 323 323 323 324 324 324 324 323 324 322 315 307 310 312 316 332 325 325 324 323 322 321 320 319 317 317 317 316 317 316 315 316 317 315 314 314 313 317 317 314 314 315 318 316
329 328 327 328 329 329 329 329 328 328 327 327 327 326 325 324 323 322 322 322 322 321 320 320 320 321 320 321 326 323 320 313 301 296 298 310 319 321 324 324 324 324 323 322 323 323 323 324 323 315 313 311 307 303 300 302 306 318 324 325 323 321 321 319 319 318 318 315 315 316 315 314 315 317 317 317 318 319 317 317 314 314 316 314 317
327 326 324 325 327 327 327 327 327 326 327 327 327 326 326 328 327 322 323 323 323 322 322 319 319 320 320 323 321 318 313 304 294 293 294 294 312 324 323 322 323 322 322 322 321 321 321 322 323 322 320 316 321 299 302 302 300 298 299 303 308 320 322 320 318 319 317 316 317 316 315 315 316 317 317 316 319 317 317 317 316 315 314 311 310
324 323 323 323 324 324 324 324 324 324 324 323 324 324 324 325 325 325 325 324 323 324 323 322 323 324 323 321 318 315 309 295 291 293 293 293 297 316 325 323 323 322 322 321 320 321 320 322 323 322 323 327 323 320 313 300 304 303 301 299 297 295 299 316 319 319 320 317 316 317 316 315 316 317 316 317 317 318 318 317 317 315 314 313 313
317 317 319 320 320 320 320 320 319 318 317 318 319 320 320 320 321 322 323 324 325 324 326 324 323 321 319 315 313 311 309 293 292 292 293 292 292 303 323 322 320 321 323 322 323 322 321 322 323 323 320 318 320 321 322 324 301 294 298 300 300 298 299 298 299 316 320 319 320 319 318 318 317 317 321 322 322 318 320 317 317 317 316 314 314
310 311 312 312 313 313 315 316 316 316 316 316 316 316 316 317 319 320 321 322 322 322 321 320 319 317 315 313 310 308 304 294 291 291 292 291 292 297 325 323 323 322 322 322 323 323 323 323 323 322 324 324 324 325 321 323 325 325 325 323 321 318 300 297 296 294 305 319 319 319 323 324 320 323 327 326 321 318 318 318 321 318 317 315 319
307 308 309 310 311 311 312 312 313 314 314 313 312 312 313 315 315 316 318 318 318 317 317 316 315 314 313 311 309 305 301 291 291 291 292 291 291 297 325 323 322 323 324 324 324 324 325 325 324 323 326 322 309 307 323 325 326 325 324 325 325 324 324 325 324 322 322 322 321 320 322 324 324 328 328 329 327 323 323 323 324 322 322 323 325
304 306 307 308 308 309 310 309 310 310 311 311 310 310 310 311 311 312 313 314 316 316 316 316 315 313 312 311 308 304 301 291 291 291 291 291 292 319 323 323 323 325 326 327 325 327 327 328 327 327 327 318 299 293 298 313 323 323 322 322 322 323 324 319 317 317 324 325 325 324 325 325 306 324 327 331 329 331 325 325 323 321 318 316 317
301 302 304 305 307 308 308 309 309 308 309 309 309 310 308 308 308 308 309 310 310 311 313 313 314 315 313 312 309 305 302 294 290 291 291 290 299 319 322 321 323 323 324 325 324 326 327 322 322 324 323 311 294 292 293 299 323 323 323 323 324 323 323 325 311 303 300 298 296 296 295 295 297 297 296 295 315 321 326 321 320 320 318 316 316
300 300 301 302 304 305 306 307 306 307 308 308 308 308 308 308 307 308 306 306 306 307 308 307 308 309 310 310 310 306 302 295 290 291 291 290 296 314 317 319 320 320 321 322 323 323 315 311 319 322 316 306 291 291 291 304 317 320 322 322 322 322 325 327 328 327 306 304 301 298 296 296 295 294 293 294 295 302 322 316 318 321 315 314 313
299 300 300 302 303 303 304 305 306 305 304 304 304 304 305 306 307 308 307 307 307 306 306 306 305 306 306 306 306 309 306 299 291 291 291 291 298 309 313 314 315 316 316 316 318 319 317 306 300 304 304 296 289 290 290 299 309 313 315 317 318 320 322 323 325 325 325 325 325 324 316 308 311 314 315 301 297 303 318 319 319 318 316 316 314
300 301 301 302 303 303 303 303 304 304 304 304 305 305 305 305 305 305 307 308 308 308 307 306 306 306 307 307 305 306 306 302 295 290 291 292 291 304 313 311 310 309 311 310 310 312 314 309 298 290 291 290 289 289 290 290 302 306 308 308 310 313 313 311 314 318 322 323 323 323 322 323 323 321 319 319 317 313 316 318 318 318 317 316 316
301 301 301 301 301 302 304 304 303 304 304 305 305 305 305 305 306 307 307 307 307 307 307 306 307 307 307 306 305 303 303 305 298 290 291 291 291 295 309 307 304 304 305 306 307 308 309 311 305 292 290 290 290 290 290 290 290 301 305 306 308 305 300 307 309 303 311 315 320 320 320 321 322 322 321 321 320 319 316 316 317 318 317 315 315
301 301 301 301 302 302 302 303 304 305 305 304 303 304 304 305 306 306 307 307 307 306 305 305 305 304 304 304 305 303 300 301 302 292 291 291 290 291 301 300 297 300 303 305 306 308 309 309 308 295 290 291 291 291 290 291 290 297 301 295 293 293 300 303 306 307 307 308 309 312 316 318 318 319 321 320 319 320 319 316 315 316 317 317 316
300 300 299 300 301 302 303 304 303 303 303 303 303 303 303 304 305 305 306 305 306 306 306 306 306 305 304 304 303 304 303 300 296 298 290 290 289 291 289 295 290 302 301 300 301 302 305 307 306 293 291 291 291 291 291 290 292 299 293 292 292 290 293 303 305 306 306 305 306 306 308 312 313 314 316 316 318 318 319 318 317 317 315 316 317
300 300 300 300 300 300 300 301 302 302 302 302 302 302 302 302 303 304 305 304 304 304 304 306 306 306 306 306 307 307 307 305 296 296 296 290 291 290 290 289 289 298 300 300 300 303 303 304 299 291 291 291 291 291 291 290 294 291 290 291 291 291 299 302 302 304 303 303 303 304 304 306 307 309 311 314 315 317 319 319 319 318 318 317 317
301 301 300 300 300 300 300 300 300 300 301 301 301 301 302 303 302 302 303 303 303 303 302 303 303 303 303 305 305 305 306 305 304 297 294 291 290 289 289 288 289 288 299 301 303 303 295 291 292 292 292 291 291 290 292 292 290 289 289 289 291 297 301 302 303 303 302 302 304 305 305 305 306 307 311 312 315 316 316 316 318 319 319 318 313
301 300 300 300 301 302 302 301 301 302 302 301 301 301 301 301 302 302 303 302 302 302 300 301 301 301 301 302 302 303 302 305 305 304 298 296 294 289 289 289 290 290 293 298 292 289 289 290 290 291 291 294 298 301 302 304 295 292 291 291 301 303 303 303 304 304 304 304 305 305 307 308 309 311 313 313 312 311 312 311 313 313 313 309 307
301 301 301 301 300 299 300 300 301 301 302 302 302 302 301 301 301 300 301 302 301 300 301 301 301 301 302 302 303 303 304 305 305 303 301 300 300 300 302 300 292 290 295 299 297 300 301 300 299 295 295 293 294 293 295 296 300 303 302 302 303 305 307 307 307 307 305 306 306 307 308 309 310 310 309 309 310 310 312 311 312 310 309 308 305
302 302 302 301 301 301 301 295 298 300 300 300 300 301 302 303 301 298 297 298 299 301 302 301 301 302 302 302 303 303 303 302 299 298 298 298 298 299 300 301 302 302 301 300 299 299 300 296 297 302 303 303 303 304 305 306 305 303 305 305 305 305 304 301 301 307 306 306 305 305 305 306 306 308 308 308 309 309 311 309 308 309 307 303 303
301 301 301 301 301 301 301 301 302 302 302 300 299 298 298 301 302 300 298 297 296 297 300 301 300 301 302 302 301 302 302 299 296 290 292 288 291 295 297 298 298 299 295 288 294 298 300 300 300 300 303 297 299 303 303 303 301 303 305 305 304 303 304 305 304 304 305 304 304 304 304 305 305 306 306 307 307 307 309 308 308 307 305 304 302
300 299 299 298 300 301 301 301 301 301 301 302 301 297 289 289 296 299 299 290 288 288 290 295 296 298 300 302 300 298 298 296 288 288 288 288 288 287 288 288 288 291 290 287 289 294 296 296 298 299 298 298 299 298 299 299 297 299 299 297 300 302 302 301 303 303 303 301 302 301 300 301 301 303 304 305 306 306 303 301 305 305 301 301 300
299 299 299 298 296 299 300 300 301 301 301 301 302 298 299 297 288 288 291 290 290 288 288 287 287 287 293 298 297 289 289 288 288 288 288 288 288 288 288 288 288 287 287 289 293 295 297 297 298 299 298 300 297 298 297 298 298 298 299 299 301 300 298 301 301 300 299 299 298 300 300 300 300 300 300 301 302 303 302 301 301 302 300 300 298
299 299 299 300 299 299 300 300 300 300 300 300 300 300 300 298 298 290 289 289 288 288 288 288 288 288 288 290 293 299 292 289 288 288 288 288 288 288 287 287 287 287 287 286 292 297 298 298 298 297 298 297 297 298 298 298 298 297 298 297 298 299 299 299 299 301 300 300 299 298 298 298 298 297 299 298 297 297 297 294 296 294 295 296 296
299 299 299 299 298 299 298 299 300 300 300 299 300 299 299 298 298 297 295 289 288 289 289 289 288 289 289 288 288 288 288 288 288 288 288 288 288 288 287 287 287 287 285 288 294 297 296 297 297 299 298 297 298 298 298 298 298 297 298 298 297 298 300 300 297 300 297 298 298 298 297 297 297 296 295 296 295 294 292 292 294 294 294 293 292
300 298 297 297 299 299 299 300 299 299 300 299 299 299 299 299 299 298 297 296 296 293 289 288 289 289 289 289 289 288 289 288 288 288 288 289 288 288 288 292 289 287 288 293 298 297 298 298 298 298 299 298 298 296 296 297 297 298 298 298 299 299 300 301 299 297 296 297 296 295 295 296 295 295 295 294 295 294 293 292 292 292 292 292 291
300 293 289 294 298 299 299 299 299 298 298 299 299 298 299 298 299 297 298 297 297 297 296 296 290 288 294 290 289 288 289 289 288 288 288 289 289 289 290 298 295 294 294 298 300 300 298 298 298 298 299 297 297 296 296 298 298 297 297 296 298 298 298 296 295 295 294 295 295 294 293 292 293 293 293 294 293 292 292 292 291 290 291 290 291
299 299 300 299 299 299 299 299 299 299 298 299 299 298 297 299 297 299 297 298 297 297 299 298 297 291 290 291 289 289 288 287 288 288 288 288 289 289 295 296 296 296 297 299 299 298 298 298 298 298 298 298 298 297 298 297 297 297 298 296 295 296 293 293 293 293 292 292 293 292 291 291 292 292 292 292 292 291 291 290 291 290 290 290 290
300 299 300 299 299 299 299 299 299 297 292 295 299 298 298 299 296 298 297 297 297 297 298 299 299 297 292 296 293 292 289 289 289 289 288 289 288 294 299 297 297 298 296 298 297 297 297 298 297 297 297 296 297 297 297 297 297 297 295 297 297 294 292 293 292 291 292 292 291 290 290 290 290 290 290 289 289 290 290 290 289 289 289 289 289
299 299 298 297 297 298 299 299 298 292 295 298 298 298 297 298 297 296 295 294 295 294 296 297 294 297 296 297 297 296 294 291 288 290 290 291 293 296 296 296 296 296 296 297 297 297 296 296 297 296 296 296 296 296 296 296 295 294 293 295 293 293 291 292 290 290 290 290 289 289 288 288 289 289 288 288 288 288 288 288 289 289 289 289 290
300 291 288 290 292 296 297 298 297 298 297 296 297 295 293 295 297 296 296 295 295 295 295 297 296 295 296 296 296 296 295 296 293 293 293 294 294 296 296 296 296 295 296 296 295 296 295 295 295 295 295 295 294 295 295 294 295 293 293 293 292 293 292 292 291 291 291 290 289 289 288 287 288 288 288 287 287 287 287 288 288 288 288 288 289
299 297 293 289 294 296 296 295 296 298 295 297 297 297 295 296 295 295 296 295 294 294 294 295 295 296 295 295 294 295 294 293 292 293 292 293 293 294 295 294 293 295 295 295 295 295 294 294 294 294 294 294 294 294 295 294 292 293 293 292 292 292 291 291 291 290 290 290 289 288 288 287 287 288 288 287 287 287 287 287 288 288 289 288 289
299 299 294 293 292 295 295 296 296 297 297 297 297 298 296 294 295 294 295 295 293 293 293 294 295 295 294 292 288 288 293 295 294 293 291 292 292 293 293 293 292 294 294 293 293 293 294 293 293 293 292 292 293 293 294 293 293 293 292 292 292 292 291 290 290 290 290 290 290 289 289 288 288 287 287 287 287 287 287 288 288 288 288 288 288
298 298 297 297 296 296 296 295 296 296 295 296 296 296 296 294 295 294 293 293 293 293 294 295 295 294 290 286 289 287 294 296 295 295 295 294 294 293 292 293 294 294 293 292 293 291 291 293 292 292 292 291 291 291 291 292 292 292 292 292 292 292 291 291 291 290 290 290 289 288 288 287 287 287 287 287 287 287 287 288 288 288 288 288 288
299 298 297 297 296 296 296 297 297 297 297 296 295 293 294 295 295 294 293 293 293 293 294 293 295 295 294 290 290 288 295 295 292 293 293 294 293 292 292 292 293 294 294 294 293 292 292 292 292 292 291 291 291 291 291 292 292 292 292 291 291 291 291 291 291 291 291 290 290 289 288 288 288 288 287 287 287 287 287 287 288 288 288 288 288
298 297 297 296 297 296 297 297 296 296 295 293 294 295 296 295 295 294 294 293 293 293 294 292 293 294 292 293 293 293 294 294 294 294 293 292 292 291 292 291 292 293 293 292 292 292 292 292 292 292 292 292 292 294 293 292 293 293 292 292 291 290 291 291 290 290 291 291 290 290 289 288 288 288 288 288 288 288 288 288 288 288 289 289 289
299 298 297 296 296 296 296 296 296 296 292 294 295 296 293 295 294 293 294 294 293 294 292 293 293 291 292 293 293 294 294 294 292 292 292 291 291 292 293 293 291 291 292 292 292 292 292 291 291 291 291 292 292 294 294 294 294 294 293 293 292 291 291 291 291 291 291 290 291 290 290 289 289 289 289 289 289 288 289 288 288 288 288 288 288
298 297 296 296 295 295 295 297 295 296 295 295 294 295 295 294 294 294 293 293 293 293 293 293 292 292 292 293 292 292 293 293 293 292 292 291 292 292 292 292 292 292 292 293 292 291 291 291 291 291 291 292 291 294 295 293 294 295 295 294 293 293 293 293 292 292 291 290 291 291 290 290 290 289 288 290 290 290 289 289 288 289 288 288 288
299 298 297 296 295 294 295 294 296 296 296 295 295 294 294 294 295 293 292 294 293 293 293 294 293 293 293 293 292 291 292 293 293 292 292 292 292 293 292 290 291 291 292 292 290 292 291 290 290 290 290 291 292 291 293 294 295 295 294 293 293 291 291 292 291 291 292 291 290 290 290 290 290 290 290 290 290 290 289 289 289 288 288 289 289
297 297 297 295 295 295 295 296 295 292 295 295 294 293 293 293 294 294 294 293 293 294 294 294 294 294 292 293 293 293 293 293 293 293 292 292 293 292 291 291 290 291 290 290 290 290 290 290 290 290 291 291 291 291 292 294 293 294 294 291 289 287 287 287 291 292 293 292 292 291 290 290 290 290 290 290 290 290 289 289 289 289 289 289 289
297 297 296 296 295 295 294 295 294 295 295 295 293 293 292 293 293 294 294 294 294 294 294 294 294 294 294 293 294 294 293 293 293 293 293 294 293 293 291 290 289 290 290 290 290 289 289 290 289 290 290 291 291 291 290 291 292 292 291 290 286 284 285 285 288 291 289 291 292 290 290 291 290 289 290 289 289 290 289 289 289 289 289 289 289
296 295 296 295 294 294 295 294 295 296 295 294 294 294 294 294 293 293 293 294 294 294 294 294 294 294 294 293 292 293 294 293 292 293 292 292 293 292 291 290 290 290 290 290 290 290 289 290 290 289 290 290 290 290 291 290 289 288 288 286 283 284 284 284 287 287 289 292 292 292 291 291 290 290 290 290 290 290 289 289 289 289 289 289 288
295 295 295 295 295 295 295 295 295 295 295 294 294 293 292 293 293 293 293 294 294 294 294 294 294 294 294 294 293 294 293 294 294 294 294 293 293 292 291 290 290 289 289 290 290 290 290 289 290 290 291 290 291 291 290 290 288 286 284 283 283 283 283 284 287 286 285 287 292 292 292 290 290 290 290 290 290 290 289 289 289 289 289 289 289
Wind_Speed
11 9 10 11 12 12 12 10 11 11 11 9 9 8 7 7 7 6 5 5 5 4 5 4 4 3 3 3 3 4 3 2 2 1 2 2 4 4 3 4 7 9 6 6 5 5 6 7 8 7 8 7 7 7 7 7 6 7 4 4 5 5 6 6 7 7 5 4 4 7 8 9 9 9 9 8 10 8 9 7 12 9 9 8 9
9 11 10 11 14 13 12 11 10 9 10 10 8 9 7 7 6 6 5 6 5 5 5 2 2 3 3 3 1 1 2 2 2 2 2 2 2 3 5 6 3 2 4 6 7 8 10 11 9 8 7 5 8 8 8 7 8 8 6 6 7 7 6 8 10 7 7 5 5 5 9 8 7 9 9 8 10 9 10 8 10 10 9 9 9
9 11 12 13 14 13 13 11 11 10 11 9 10 9 8 7 6 6 5 5 4 4 4 4 3 4 3 2 2 2 2 2 1 2 2 1 2 2 2 3 3 2 3 3 4 3 5 4 6 9 7 7 7 7 8 8 8 8 7 6 7 6 7 6 11 9 9 7 5 7 8 7 6 9 10 9 9 10 10 9 10 9 8 9 9
10 10 11 13 11 13 13 13 12 12 10 9 10 9 9 7 7 6 5 5 5 3 4 3 4 3 4 4 4 3 3 3 4 4 4 4 4 5 4 3 3 4 4 6 6 4 2 1 6 7 7 7 7 7 8 9 10 7 8 6 7 7 5 8 6 9 8 8 7 7 8 7 7 7 8 9 9 9 9 9 9 9 9 9 9
14 13 12 12 14 12 13 12 12 12 11 10 10 10 9 8 7 6 5 5 5 4 4 3 3 5 3 4 4 4 4 3 3 2 3 3 3 4 4 4 5 5 6 6 6 6 7 8 6 6 8 9 10 8 8 8 9 6 7 7 6 7 3 3 2 3 7 9 9 8 7 9 7 7 8 9 10 9 9 9 9 10 10 9 8
11 11 11 12 10 13 12 13 13 12 12 11 11 10 9 8 7 6 6 6 5 4 4 3 3 5 6 5 6 5 4 4 4 3 2 1 1 3 3 5 4 5 3 3 3 3 4 4 6 7 7 4 8 7 7 9 8 6 8 7 8 7 5 5 4 4 5 4 7 8 6 5 8 7 7 8 8 8 8 8 8 7 8 7 5
11 10 10 11 13 14 12 13 12 12 11 11 10 10 9 8 8 7 6 6 5 4 4 4 3 3 4 3 3 3 3 3 5 4 4 3 2 1 2 3 3 3 4 3 5 4 4 4 3 4 5 7 5 7 6 6 5 3 5 6 6 8 7 5 6 6 5 4 6 4 6 7 5 6 7 8 8 7 7 7 7 8 7 7 7
10 11 13 12 10 11 11 12 12 11 11 11 11 10 9 8 7 7 7 6 5 4 4 4 3 3 4 3 3 2 2 6 9 7 3 4 3 4 2 2 4 3 3 3 3 3 4 4 4 5 2 1 2 7 7 6 5 5 4 4 4 3 5 6 6 6 7 7 7 6 6 6 6 7 7 7 8 8 9 8 7 6 7 8 8
14 14 12 12 12 11 10 10 11 11 11 11 11 10 9 8 8 8 7 6 4 5 4 4 4 4 5 3 4 5 10 8 6 7 8 9 2 5 4 5 3 4 4 3 3 4 4 4 2 6 9 6 10 10 8 7 1 5 5 4 4 4 5 6 6 6 6 6 6 6 6 7 7 7 7 7 7 7 5 5 7 8 7 4 7
11 12 12 11 12 12 12 11 11 12 12 11 11 10 9 8 8 8 7 7 6 5 5 5 4 5 6 5 9 8 7 5 10 11 7 5 9 4 5 4 5 4 4 6 4 4 5 5 7 8 9 8 8 9 9 8 9 6 4 3 3 5 6 6 6 6 6 6 7 6 7 7 7 6 6 6 6 6 6 6 8 7 7 8 6
10 12 12 11 12 12 12 12 12 13 13 12 11 10 9 7 6 6 7 7 7 5 4 4 5 5 5 7 8 8 6 6 12 11 11 11 7 9 2 3 4 5 5 4 4 5 3 4 7 6 5 4 4 5 5 7 8 7 6 5 4 4 5 5 7 6 6 6 6 7 7 7 7 6 6 8 8 7 7 6 8 7 8 8 8
7 10 11 11 11 12 11 12 12 12 12 12 11 10 8 8 8 7 5 6 6 5 4 3 6 8 8 9 8 7 6 8 11 11 11 11 8 6 5 0 2 3 5 4 5 5 5 4 4 5 4 3 3 7 6 5 2 4 4 6 7 5 2 1 5 6 5 7 7 7 7 7 8 7 8 7 7 6 8 8 8 9 8 8 8
9 9 8 9 11 11 12 12 12 11 10 10 10 10 9 8 7 7 7 5 7 7 6 6 7 7 8 9 8 8 6 11 11 11 10 10 10 8 6 3 4 4 1 3 4 1 3 4 3 2 5 5 2 3 1 5 4 3 2 3 4 6 8 4 3 4 6 7 6 7 8 7 8 8 6 7 7 8 7 7 7 8 8 9 10
9 10 10 10 9 8 9 12 12 12 11 11 10 10 9 8 7 7 6 6 8 8 8 8 8 7 7 8 8 7 8 10 11 12 11 11 10 7 5 2 2 1 1 1 1 0 1 1 2 4 4 1 4 5 3 4 4 4 3 4 5 6 7 9 10 8 5 5 7 7 7 7 7 6 7 6 6 7 9 7 6 9 10 11 9
11 9 11 10 9 8 8 10 12 11 11 11 10 10 8 8 8 7 6 6 7 7 7 8 7 7 7 7 8 8 6 10 12 13 13 13 12 9 2 1 2 2 0 1 2 1 2 2 3 4 5 9 7 9 8 7 6 5 5 6 7 7 7 8 8 7 6 6 7 8 7 8 8 6 5 3 6 8 8 8 8 7 8 8 7
11 10 10 9 10 8 8 11 12 11 10 9 9 9 8 8 8 6 6 6 5 6 7 7 8 8 7 7 7 8 7 13 13 13 14 14 14 7 1 2 2 0 1 1 2 1 0 1 2 2 7 8 9 12 10 7 5 6 7 8 8 7 7 6 4 6 8 7 6 6 6 3 4 3 3 4 6 4 4 6 7 9 10 12 12
11 10 10 9 9 7 7 10 9 10 9 10 10 8 8 8 7 5 6 6 7 7 7 7 7 7 7 7 7 7 8 11 13 14 14 15 11 5 1 2 1 1 1 1 2 1 3 5 5 3 7 7 9 12 12 9 5 6 7 8 8 8 8 6 9 9 10 11 12 11 9 9 9 7 6 8 5 5 5 7 8 8 8 9 10
10 10 11 10 9 10 9 8 8 10 9 9 9 8 7 7 7 5 6 6 7 6 7 7 7 7 8 8 6 7 7 10 13 13 14 15 12 6 4 2 0 2 1 1 3 2 8 10 7 6 8 7 9 11 13 9 5 7 8 9 9 10 8 6 5 3 5 6 10 11 11 11 11 11 10 10 10 6 7 12 11 7 5 9 8
10 11 11 10 9 9 9 9 9 10 10 8 8 8 7 6 6 5 6 6 7 6 6 6 7 7 7 7 8 6 7 8 12 12 13 14 11 7 5 3 2 3 4 4 1 1 8 10 14 12 9 7 10 11 11 9 7 7 8 9 9 9 8 9 7 8 6 7 7 6 8 9 10 10 10 13 12 8 9 12 11 11 11 9 10
9 9 8 7 7 9 10 10 10 9 9 7 7 7 6 6 7 6 6 5 5 5 4 5 6 6 5 6 6 6 6 7 8 10 12 13 14 8 5 5 5 5 4 5 5 5 2 9 9 11 10 8 8 8 8 7 5 6 7 7 9 8 9 9 9 9 9 8 8 8 9 9 8 8 9 9 9 10 11 11 12 12 11 11 11
7 7 7 8 9 10 9 8 8 8 8 7 6 5 5 5 4 5 5 4 4 4 4 4 4 4 4 4 4 4 4 5 7 9 9 11 13 11 5 7 7 6 6 5 5 4 4 7 6 7 7 7 7 6 5 5 2 4 6 7 7 10 13 9 10 11 10 11 10 9 10 11 10 11 10 10 9 9 10 11 11 10 9 9 11
6 7 7 8 8 8 7 7 7 5 4 6 6 5 4 4 4 4 4 4 4 4 4 4 4 3 3 3 4 4 4 5 5 6 7 8 9 12 8 7 6 6 6 6 5 5 5 5 6 6 9 9 10 10 10 7 3 4 7 10 12 12 8 8 8 9 10 10 11 12 13 13 12 13 12 11 10 10 9 9 9 9 9 9 9
7 7 8 8 7 6 6 7 7 6 6 6 7 6 5 5 5 4 3 3 3 4 4 3 4 5 4 4 3 4 5 4 5 5 4 5 6 7 6 5 7 4 4 5 6 6 5 7 4 13 15 15 14 13 10 12 9 7 10 11 11 10 7 7 7 8 9 10 11 12 12 12 12 12 11 11 10 8 7 8 9 10 11 9 10
7 8 8 7 7 7 8 7 6 5 5 5 5 6 4 3 4 4 3 2 2 2 2 2 2 3 4 5 6 5 4 6 5 6 5 6 4 3 2 2 4 4 4 3 4 5 5 6 8 12 12 13 13 12 12 11 9 13 14 15 14 11 7 7 8 9 9 10 11 11 11 11 11 12 12 11 10 9 9 8 9 10 10 10 10
6 7 7 6 7 7 6 6 6 6 6 6 5 4 4 3 4 3 3 3 3 2 3 3 3 3 2 2 3 3 3 4 5 5 5 6 5 5 4 3 5 4 3 4 4 5 6 7 8 8 10 12 13 13 12 12 15 14 14 16 13 5 6 7 8 8 10 11 11 11 12 12 12 12 11 13 12 11 12 10 9 8 9 5 3
7 7 7 7 6 6 6 6 6 5 5 5 5 5 5 6 5 4 4 3 3 3 3 2 2 2 1 1 1 2 1 1 4 5 3 4 3 5 6 5 6 8 8 6 10 11 10 8 9 12 12 12 10 8 8 9 10 13 14 13 7 8 8 9 9 9 10 10 10 11 11 11 11 11 11 11 13 13 12 10 7 8 6 4 4
7 6 6 6 7 7 7 5 4 5 5 4 4 4 4 4 4 4 4 3 3 2 2 1 2 2 2 2 2 3 3 3 4 6 6 6 5 3 3 5 9 8 6 5 5 5 6 5 8 10 12 14 15 14 14 13 10 7 8 8 8 9 9 9 10 10 10 10 10 10 11 11 12 11 11 11 11 11 7 4 7 8 7 5 5
7 7 8 7 6 6 6 1 2 5 5 6 6 6 6 5 6 7 7 7 7 5 3 3 4 4 3 3 2 1 3 9 8 8 7 7 6 6 6 6 5 5 6 7 8 9 9 10 11 11 10 9 8 7 8 7 8 7 6 5 5 7 10 12 12 11 10 10 11 11 11 11 11 11 11 11 11 9 9 10 9 7 4 4 4
7 8 7 6 6 6 6 6 5 4 5 6 7 7 7 7 7 7 8 7 6 6 6 7 7 6 5 5 4 4 5 8 7 6 6 5 4 5 6 5 6 5 5 7 7 8 8 7 6 6 6 4 3 5 5 6 4 7 7 7 7 8 8 8 9 10 10 11 11 9 8 9 10 11 11 12 11 10 9 8 5 4 5 6 5
5 7 8 8 7 6 5 5 5 5 4 3 6 7 7 8 7 5 5 7 9 8 7 5 5 6 5 6 7 6 6 6 8 9 8 6 3 4 6 7 8 7 9 11 7 5 5 4 4 4 4 4 4 5 5 5 6 6 5 7 7 9 9 10 9 9 9 7 9 8 7 5 8 10 11 11 11 6 7 4 3 3 3 4 4
4 4 6 6 6 6 5 6 5 5 4 3 2 4 6 6 9 9 8 8 7 6 5 5 7 8 6 6 6 12 11 9 10 8 8 7 7 5 5 5 6 8 8 5 4 3 3 3 3 4 4 6 5 5 6 6 6 6 7 7 9 9 8 9 9 7 7 6 7 7 7 6 7 8 9 9 10 8 1 3 2 2 4 4 5
5 5 4 3 2 6 4 5 4 4 4 4 3 4 4 5 5 7 5 5 5 5 6 7 6 6 6 5 5 2 6 11 9 8 7 7 7 6 5 6 6 7 5 6 4 2 3 4 4 5 5 5 5 6 6 6 6 6 7 7 7 7 8 8 8 10 8 8 8 6 6 5 5 6 6 6 5 4 2 1 2 2 3 4 5
5 6 7 7 3 2 1 3 4 4 4 4 3 1 3 2 6 4 4 5 7 6 5 4 4 5 6 4 2 2 3 7 8 7 8 9 9 7 6 7 7 3 2 2 4 3 3 3 4 6 6 5 5 6 5 7 6 5 6 6 7 7 9 9 7 9 6 6 7 8 7 7 5 4 5 5 3 4 2 2 4 3 4 4 3
4 5 6 6 7 3 5 5 4 3 3 3 2 5 4 4 5 2 6 4 3 2 1 2 2 1 2 3 4 2 3 5 6 7 8 10 11 9 5 5 6 5 5 3 4 4 4 6 6 7 7 7 7 6 5 6 6 8 6 8 8 9 10 10 10 7 6 7 7 7 7 7 6 5 6 5 4 4 3 3 3 3 3 3 4
3 5 3 4 5 5 3 3 4 5 4 4 4 3 2 2 2 4 3 2 5 8 6 5 6 10 5 5 3 2 3 5 6 7 8 9 11 13 13 4 2 3 5 7 4 6 6 7 7 7 7 6 5 5 6 8 8 7 6 6 7 8 8 6 6 8 7 7 6 7 6 6 6 5 5 6 5 5 3 2 2 2 3 3 3
3 3 1 3 5 4 3 4 5 5 5 4 3 3 3 2 3 1 1 1 4 4 4 7 6 8 7 7 7 5 6 7 7 7 8 9 12 12 5 4 4 5 6 6 6 6 6 6 6 7 7 6 7 7 7 7 7 7 7 6 6 4 4 5 5 6 7 7 6 7 8 7 6 4 3 2 1 2 2 2 2 3 3 3 2
3 4 4 4 4 4 5 4 4 5 5 4 2 2 1 2 2 2 1 2 4 4 4 2 2 6 7 6 6 2 8 6 7 7 8 9 12 10 4 4 5 6 6 6 6 6 6 6 6 6 6 6 6 6 6 7 7 7 7 7 7 5 4 5 4 5 6 6 6 6 6 6 6 4 2 2 3 3 3 4 4 4 2 2 4
2 2 5 7 7 7 5 3 2 3 3 6 2 2 3 2 2 2 2 0 2 2 4 2 2 5 4 8 6 5 5 6 4 4 7 6 4 4 4 3 5 5 5 5 5 5 6 6 7 6 7 6 7 7 6 7 6 6 5 6 5 5 8 5 4 4 4 4 4 5 6 7 7 7 6 6 6 6 6 4 4 4 4 5 3
1 6 6 3 7 5 6 2 1 3 6 3 2 3 4 3 2 2 4 1 1 1 3 3 3 3 4 6 6 7 7 3 2 3 4 3 3 2 3 4 3 4 4 5 5 6 6 6 6 7 7 7 7 7 7 5 6 5 5 5 5 5 6 5 5 5 5 4 5 5 6 6 6 5 5 5 7 7 6 5 5 4 4 3 3
4 5 4 4 5 7 3 3 2 3 2 3 1 1 2 2 3 2 1 0 1 0 1 2 2 3 5 6 5 6 4 1 1 1 2 2 2 3 4 3 3 5 5 6 6 6 7 6 7 7 7 7 7 7 7 7 5 5 5 5 5 6 6 5 5 5 5 5 5 6 6 6 6 4 4 4 4 5 5 4 3 3 2 2 2
3 2 5 4 3 3 3 3 2 3 5 3 2 1 3 2 4 5 1 0 0 0 0 1 2 5 5 3 7 6 6 2 1 2 2 3 3 3 4 4 3 5 6 5 5 6 6 6 7 5 5 6 6 7 7 5 5 5 5 5 4 4 4 4 4 4 5 5 6 7 7 6 5 4 5 5 5 4 3 3 3 3 4 4 3
4 3 4 3 8 4 2 1 2 4 2 2 3 1 1 1 1 1 3 0 0 1 0 0 3 6 6 3 7 9 5 4 4 5 5 5 5 5 3 5 5 6 4 4 6 4 4 6 5 5 5 5 5 5 6 5 5 4 4 4 4 4 4 4 4 4 5 5 4 5 4 4 4 4 4 4 2 1 1 2 2 1 1 1 1
3 4 3 3 4 4 4 4 3 3 1 3 2 2 1 3 1 1 0 0 1 0 0 0 1 3 5 3 5 9 3 5 5 5 5 5 5 3 3 3 3 5 5 6 5 4 4 4 4 5 5 5 5 5 5 5 5 4 3 4 4 4 4 3 3 3 3 4 3 3 3 2 1 1 1 1 1 1 2 2 2 2 2 2 1
3 4 3 3 4 3 2 3 4 2 6 4 2 2 3 1 0 0 1 1 0 0 0 1 1 3 2 2 0 5 6 5 6 5 5 5 4 3 3 3 4 3 5 4 4 4 4 3 4 4 4 4 5 5 3 4 4 4 3 3 4 4 4 3 3 3 3 3 3 3 3 2 2 1 1 0 0 1 2 2 2 2 2 2 3
3 4 3 4 3 4 3 4 4 3 6 1 2 2 1 2 0 0 1 1 1 0 1 1 2 2 3 3 4 5 5 5 4 5 3 3 2 3 2 3 3 3 3 3 4 3 3 3 3 4 4 3 4 3 3 3 3 4 3 4 3 3 3 3 3 3 3 3 3 3 3 2 2 2 1 0 0 1 1 2 2 3 2 2 2
3 3 3 4 4 3 4 1 6 2 2 1 1 1 1 0 0 1 1 1 1 1 2 2 2 2 2 2 2 3 3 4 3 3 4 2 2 2 2 2 3 3 3 3 3 3 2 2 3 3 3 3 3 3 3 3 3 4 4 3 3 3 3 3 3 3 3 4 4 3 3 3 3 2 2 2 3 3 3 2 3 3 3 3 3
3 4 3 4 4 3 2 5 3 2 0 0 1 1 1 1 0 1 1 3 1 1 1 2 1 1 1 1 1 1 2 2 2 2 2 3 2 2 2 2 2 2 2 2 3 3 3 2 2 2 2 3 3 3 3 3 3 3 3 4 4 5 5 6 2 3 3 4 3 3 3 3 3 3 2 3 3 3 3 3 3 3 3 3 2
4 4 4 3 4 3 3 1 4 1 1 0 1 1 2 2 1 2 2 3 3 2 2 2 2 2 2 2 2 1 1 1 1 1 1 1 1 2 2 2 2 2 2 2 3 3 3 3 3 3 3 3 3 3 3 3 3 4 3 4 5 5 8 9 4 3 2 3 3 4 4 4 4 4 4 4 5 4 5 4 4 3 3 3 3
4 4 3 4 4 4 3 4 2 0 2 2 1 2 2 2 2 2 2 2 2 2 2 2 3 2 2 1 1 2 2 1 0 1 0 0 1 2 2 2 2 2 2 2 2 2 2 3 3 3 3 3 3 3 3 4 4 4 4 4 7 12 11 10 7 4 8 5 2 3 3 3 3 3 4 4 5 4 4 3 3 4 3 3 3
5 4 4 4 4 5 2 3 4 2 2 1 2 2 2 2 3 3 3 3 3 3 2 2 2 2 2 2 2 1 1 1 0 0 0 0 1 2 2 2 2 2 2 2 2 2 2 2 2 3 3 3 3 3 4 4 4 4 4 6 10 11 10 11 9 8 8 4 3 2 3 3 3 3 3 4 3 4 4 3 3 3 3 3 3
4 3 4 4 5 5 3 3 4 3 3 2 3 2 2 2 3 3 4 4 3 3 3 2 2 2 2 1 1 2 1 1 1 1 1 0 0 1 1 2 1 1 1 2 2 2 2 2 2 2 3 3 3 3 4 5 4 4 5 7 9 9 10 9 6 9 11 6 5 2 3 2 2 3 3 3 4 3 2 2 3 3 3 3 3
Wind_Direction
179 194 173 171 158 169 161 155 154 158 151 148 143 139 137 136 134 132 136 126 133 155 150 163 158 173 175 187 195 190 202 205 218 243 223 230 169 167 232 226 196 197 189 166 190 157 215 203 185 175 199 168 207 180 162 170 184 227 217 146 161 178 204 154 143 142 141 160 166 157 156 164 173 175 177 161 160 192 233 165 142 168 180 195 180
186 187 181 173 166 170 156 151 155 150 150 148 146 143 147 140 137 137 133 129 160 152 147 145 151 174 188 170 171 282 172 185 227 222 229 194 210 189 190 207 222 174 182 180 186 175 184 184 178 177 190 178 183 175 163 179 181 200 163 175 163 186 212 180 147 148 153 165 187 171 153 189 182 183 180 168 164 187 205 194 165 194 202 210 194
192 194 186 169 169 164 158 156 158 156 154 159 154 151 150 142 145 141 141 142 155 159 131 172 180 177 156 126 145 140 183 155 147 197 189 188 192 211 201 195 201 155 178 177 180 197 146 205 173 173 167 172 186 188 161 185 199 194 159 182 156 190 210 222 137 156 158 176 186 191 164 181 221 179 190 178 177 188 200 212 198 195 209 211 222
229 199 177 166 168 168 163 164 164 160 160 159 157 151 151 149 146 155 147 156 153 137 132 178 163 154 133 148 127 126 139 150 157 180 176 174 181 171 178 163 167 163 175 175 156 160 141 242 171 173 138 170 196 197 178 193 210 176 152 189 152 194 182 301 162 151 177 159 197 208 166 178 209 224 190 186 186 194 203 207 218 215 206 213 223
208 188 170 170 173 178 168 166 161 160 159 159 158 154 153 154 151 161 150 156 138 143 162 147 173 151 149 148 143 143 140 160 160 167 145 183 177 153 171 154 158 178 183 203 154 150 153 169 226 152 172 189 183 209 184 205 231 156 177 172 185 172 183 220 253 206 169 183 172 227 183 172 198 218 214 196 188 200 209 218 217 215 218 223 226
251 187 181 171 186 170 175 165 163 161 161 159 159 156 157 153 150 153 158 150 140 170 152 173 173 153 178 189 185 142 171 145 158 157 166 266 164 166 144 140 176 194 129 155 116 120 160 168 164 189 153 206 196 206 195 199 228 172 184 184 181 159 184 183 240 239 252 219 167 169 268 189 190 203 224 214 208 200 204 218 227 236 236 219 189
216 194 172 185 172 166 166 164 162 162 157 153 156 159 156 147 151 155 151 139 153 156 160 150 191 153 180 166 141 164 147 171 163 149 164 188 229 99 129 148 154 119 178 224 155 159 196 149 190 180 189 183 168 214 209 201 237 243 192 211 203 163 169 193 204 216 248 238 251 219 192 228 240 200 208 228 223 231 237 209 233 234 226 224 238
194 191 171 168 155 163 163 160 157 154 152 151 157 157 148 151 153 142 136 140 151 151 150 157 156 194 119 172 103 90 66 31 24 15 347 182 171 200 204 215 166 151 170 166 159 177 194 156 175 191 189 77 196 191 204 190 209 221 207 221 241 240 183 194 221 229 205 216 222 223 219 218 201 238 247 220 223 218 230 247 238 212 218 224 221
170 173 158 151 154 144 139 144 145 146 146 151 151 150 149 150 148 137 136 139 138 131 146 144 166 133 124 120 134 71 44 32 26 3 3 347 228 180 212 208 227 186 198 200 182 215 191 191 99 64 64 61 59 42 35 33 251 216 215 221 237 229 223 224 218 219 231 225 218 226 231 217 224 209 214 245 255 245 228 220 250 270 275 242 208
156 142 135 131 130 135 133 131 136 137 139 137 137 140 139 132 132 136 134 130 131 131 136 145 147 147 152 121 64 53 43 39 360 2 5 347 348 300 168 206 211 212 211 206 197 213 205 142 80 70 60 59 57 51 40 46 58 38 7 335 253 232 223 243 241 230 229 227 226 228 222 233 233 222 228 222 245 274 267 262 266 261 239 256 275
139 134 129 128 127 128 127 125 125 126 125 124 118 105 86 72 81 111 121 120 115 122 132 141 150 155 130 88 73 62 46 15 353 1 353 7 355 347 355 184 210 209 211 216 192 194 212 179 116 112 121 113 122 102 78 33 32 51 47 60 66 15 321 260 236 250 255 246 240 232 234 243 240 244 237 231 224 225 240 247 257 265 277 271 261
113 116 122 121 120 119 117 116 112 110 113 112 106 103 99 95 90 80 76 108 115 117 128 123 87 78 84 86 78 72 59 9 3 360 2 359 7 337 321 295 229 214 212 203 198 189 194 183 159 158 175 65 90 151 145 132 113 35 24 7 356 6 109 337 320 300 280 268 265 262 264 254 256 251 250 251 257 239 230 234 239 243 253 262 255
78 67 71 98 110 117 117 114 107 98 96 97 98 100 104 101 94 87 76 75 102 103 96 104 111 91 89 88 82 69 63 25 1 9 3 357 349 336 296 216 188 204 264 255 330 265 180 165 160 214 93 76 281 279 252 160 128 96 12 325 301 279 286 263 231 261 319 316 292 272 262 268 270 264 270 281 283 273 269 259 252 255 245 246 253
67 71 59 41 42 58 88 100 101 102 98 93 91 89 90 92 93 91 85 68 80 95 101 98 99 97 94 94 85 70 55 9 8 9 7 354 347 334 297 26 346 27 186 299 108 232 91 247 206 195 191 170 18 344 278 266 183 180 202 229 250 231 229 244 244 250 246 269 286 285 288 287 279 290 302 284 270 266 265 259 275 271 262 260 270
62 60 70 62 46 51 66 74 83 85 84 82 82 85 86 88 88 91 96 99 98 100 104 101 98 100 95 89 87 73 44 9 16 13 8 357 341 321 288 289 242 188 149 116 263 31 331 337 319 308 57 54 27 10 21 6 340 309 288 264 251 250 243 230 226 234 227 230 253 266 276 279 284 291 290 312 285 269 267 271 268 273 275 278 260
43 36 45 53 65 51 56 76 75 73 77 79 81 80 81 84 87 85 86 89 92 102 104 108 108 105 101 94 91 73 46 22 16 16 10 2 338 291 223 212 226 308 146 133 259 156 32 6 315 10 57 63 22 27 25 352 321 297 288 281 277 274 268 264 266 228 228 238 247 268 285 336 35 357 334 298 261 240 278 290 282 268 265 256 252
36 29 35 35 41 44 49 70 80 91 83 81 80 83 89 87 81 74 77 82 89 89 89 87 87 94 97 98 86 72 52 22 19 16 12 4 355 343 326 248 166 186 172 345 261 171 79 39 12 19 95 61 29 32 16 355 312 300 290 289 288 285 291 295 55 34 15 358 340 323 312 302 297 294 289 292 279 290 250 251 250 255 265 281 283
32 37 37 33 29 39 40 54 62 67 69 72 80 77 71 67 66 70 88 91 87 87 89 83 80 73 69 63 62 81 62 38 24 19 12 7 352 343 326 332 84 321 264 162 314 65 77 52 27 49 72 61 44 40 19 351 327 310 304 297 290 281 275 277 276 254 170 232 256 265 273 283 283 284 280 274 275 278 243 247 247 227 221 234 260
30 36 37 36 37 41 41 38 48 57 61 54 56 62 61 61 59 56 70 79 78 86 89 93 90 83 78 76 23 55 80 57 33 21 12 12 4 346 345 354 355 24 353 324 5 346 104 60 53 57 66 62 46 42 32 17 346 334 330 315 298 287 293 316 304 292 287 279 273 266 255 243 245 247 252 241 239 245 250 254 259 253 247 235 236
37 41 39 33 38 51 49 44 47 54 63 64 57 54 49 56 60 57 54 70 84 77 80 82 82 77 66 58 56 42 58 67 49 28 15 9 7 352 355 14 15 9 348 351 336 313 99 106 74 75 76 60 47 34 38 38 360 335 325 310 301 301 4 339 320 318 303 282 276 279 277 270 251 232 233 237 220 219 231 239 245 251 253 256 250
48 42 40 38 37 41 47 48 53 51 51 52 61 67 74 75 78 92 85 70 70 81 76 79 82 84 88 93 87 72 45 59 71 41 27 15 14 3 20 29 8 352 339 328 319 319 313 91 95 80 61 44 30 22 27 15 2 316 303 288 300 337 335 319 317 318 300 290 274 259 261 258 258 257 245 240 231 214 219 226 235 238 242 252 260
57 52 50 46 44 45 47 53 46 50 66 72 66 64 71 87 95 85 89 115 127 119 118 113 101 93 87 92 108 118 86 59 92 73 51 35 25 27 30 38 15 342 338 330 334 344 341 358 71 27 17 17 10 357 344 341 308 281 281 281 295 308 314 297 292 287 281 277 274 269 262 256 253 251 244 239 237 227 209 216 221 237 239 241 244
57 62 63 62 58 55 47 53 60 55 56 59 64 54 49 54 62 74 84 82 83 108 124 125 135 144 152 148 135 137 133 113 102 108 100 71 57 50 36 30 350 343 347 328 331 327 334 314 25 18 357 350 346 336 323 310 307 277 273 277 282 291 289 277 281 284 278 274 274 270 269 267 265 264 260 260 254 244 226 205 203 210 233 243 247
58 58 58 61 63 60 57 53 50 49 49 64 79 74 59 67 64 50 36 60 85 87 88 103 142 149 149 143 146 130 137 134 132 119 121 120 108 103 122 302 327 350 342 309 309 298 309 2 358 348 341 326 313 307 306 299 278 279 283 283 281 285 283 280 275 274 275 274 271 269 266 263 263 262 260 256 254 249 245 213 206 216 220 227 222
59 60 63 63 65 66 69 67 60 46 41 36 45 64 66 53 84 74 67 53 44 62 67 46 31 44 47 58 76 84 74 110 134 145 157 153 176 191 220 202 235 222 269 298 321 354 1 334 343 333 308 294 289 289 283 272 267 266 263 263 265 264 258 261 266 265 267 264 261 261 261 260 259 260 263 264 263 261 258 250 216 218 236 214 111
65 68 62 51 47 62 65 71 67 69 75 69 57 42 39 41 40 51 50 56 54 56 60 74 90 90 62 84 73 79 119 93 109 124 152 155 190 221 241 226 243 233 238 287 304 309 313 308 288 278 278 274 279 276 271 269 248 247 253 254 257 262 266 264 262 260 262 267 266 269 274 278 276 275 269 263 262 261 262 263 240 222 191 157 149
58 55 66 83 80 62 47 27 47 54 50 72 80 68 67 73 61 51 41 43 71 76 83 68 110 98 109 123 151 159 175 144 81 57 36 20 8 335 234 223 224 246 264 245 257 276 285 277 283 278 273 272 268 272 276 282 287 252 228 232 239 249 257 255 251 263 277 282 288 292 297 298 294 288 280 277 270 270 269 210 221 222 185 188 176
40 49 52 47 38 52 66 315 326 73 44 38 38 37 40 42 58 44 22 10 2 12 29 52 37 33 22 31 19 39 86 67 43 23 16 8 354 342 344 341 353 355 350 2 344 324 308 287 269 256 252 248 251 244 245 245 250 284 313 305 269 240 239 252 276 282 271 267 271 278 285 292 296 298 294 288 282 278 263 251 244 235 192 172 171
44 41 36 42 49 38 40 38 41 54 88 82 63 44 31 26 38 64 51 32 29 15 5 26 24 14 360 24 12 22 30 47 38 37 39 31 354 339 336 342 344 319 22 19 329 305 294 294 312 307 305 307 309 311 322 321 316 313 309 311 315 315 308 307 305 309 309 304 305 312 312 310 306 307 304 294 286 278 278 260 222 217 196 199 206
47 55 39 28 16 22 34 34 36 35 32 78 109 88 38 42 29 41 77 84 69 53 39 37 12 355 353 43 42 11 20 37 36 23 13 359 349 289 292 298 300 290 299 313 302 297 293 300 301 318 319 318 322 324 328 333 328 319 315 316 310 309 322 320 310 302 309 311 308 306 303 304 304 298 295 295 301 316 33 2 199 202 193 200 187
31 30 48 42 12 344 29 25 24 25 28 9 26 134 139 102 62 51 82 112 108 107 86 85 57 34 12 4 57 87 78 59 24 6 353 341 317 316 308 305 290 284 283 287 246 245 282 302 317 319 324 332 335 329 327 319 320 321 314 316 314 315 314 312 315 317 317 316 312 309 312 315 302 293 289 294 299 300 345 48 60 85 134 142 138
9 16 20 60 46 11 19 38 7 26 26 20 12 345 138 127 114 96 60 89 113 103 112 103 99 96 59 50 356 89 53 28 357 346 333 319 317 317 314 302 296 287 282 252 268 301 343 342 336 333 332 326 325 325 324 326 323 319 318 316 317 320 318 304 320 320 316 315 315 320 317 315 312 306 300 288 279 263 225 153 128 116 107 111 120
9 6 6 358 6 139 316 54 19 17 13 14 7 24 353 116 122 113 100 69 43 38 42 74 102 103 107 97 96 70 307 322 327 323 321 315 314 312 305 281 266 279 72 216 247 329 350 338 333 329 329 325 327 329 327 319 316 316 318 321 316 312 307 310 322 317 328 334 327 316 316 314 305 299 296 286 259 247 218 179 173 160 150 146 147
37 31 1 350 320 358 1 13 10 18 12 22 42 353 33 12 3 125 149 139 147 131 74 310 311 162 165 108 108 321 315 315 316 310 312 313 309 301 260 253 235 227 217 287 311 344 344 344 331 333 329 332 327 328 326 320 318 317 316 315 312 307 310 322 323 333 337 335 331 328 326 324 322 303 287 276 259 247 216 194 177 159 156 151 140
42 109 82 326 326 352 12 1 2 13 9 355 359 26 44 7 52 353 7 161 188 176 169 167 197 236 224 179 180 179 277 273 291 299 301 302 306 311 307 261 218 203 206 230 294 357 346 337 337 337 336 337 338 335 326 326 331 327 322 321 321 320 321 339 354 347 338 327 319 312 317 320 311 300 287 278 262 238 210 174 165 155 129 116 120
330 323 108 238 304 350 349 11 353 11 356 9 25 7 350 16 330 41 39 22 326 345 136 145 151 174 180 119 152 168 209 229 254 282 297 308 304 322 333 18 350 7 350 4 7 357 347 346 351 349 346 338 333 331 336 335 330 324 325 325 315 328 4 351 344 346 336 326 327 338 332 312 302 290 272 267 251 224 160 131 109 95 101 108 110
331 331 345 344 350 341 355 349 25 7 340 324 340 344 355 352 6 342 32 4 345 337 341 20 110 155 202 167 114 143 205 211 213 252 275 296 302 297 354 10 359 5 354 3 13 352 349 357 349 342 339 338 338 340 339 334 332 327 326 323 328 1 12 345 14 353 340 347 5 0 352 354 350 353 356 56 43 38 40 44 48 55 60 106 136
295 22 360 7 336 328 319 310 104 111 270 257 307 303 299 352 17 329 308 17 28 322 326 64 3 325 2 354 18 5 291 218 191 265 268 279 314 6 17 17 5 10 355 5 9 353 355 355 359 352 347 346 342 342 343 340 340 342 349 347 358 6 349 342 34 6 358 9 21 20 15 14 13 15 19 32 37 39 39 37 45 51 38 23 29
50 65 68 12 319 315 330 328 322 207 213 249 18 349 334 326 323 333 322 14 95 359 338 330 342 5 3 357 349 322 306 42 17 10 19 10 8 360 21 11 13 17 2 7 8 5 2 358 2 357 354 354 348 347 350 354 359 1 360 354 360 5 5 13 13 16 19 35 43 34 30 22 22 22 26 34 36 35 29 33 36 39 38 31 38
187 155 133 221 251 246 263 314 304 276 300 312 314 293 274 321 323 322 349 26 28 356 317 331 350 29 24 351 349 334 342 30 42 30 18 16 16 14 20 25 8 13 9 13 8 8 0 6 5 5 5 1 353 359 3 8 7 10 9 13 16 25 27 28 32 31 39 43 43 42 38 35 27 19 33 35 40 39 28 19 20 24 28 36 35
259 208 163 177 338 319 255 240 269 340 325 304 293 181 63 10 338 323 340 42 78 235 189 19 51 67 47 10 288 281 283 338 40 44 34 31 28 26 22 20 16 11 12 12 7 9 5 10 10 11 13 7 358 2 12 18 14 16 20 17 27 40 49 44 46 46 45 44 41 41 41 37 24 21 32 24 18 23 16 12 14 25 30 30 24
272 270 279 186 194 232 271 301 289 123 222 261 285 321 128 210 347 344 344 6 45 295 78 125 112 108 109 224 288 299 303 50 19 39 40 35 32 32 22 17 16 16 15 15 11 9 5 7 13 19 17 13 6 1 3 17 18 22 26 28 29 41 59 60 61 61 55 50 47 46 44 34 23 12 4 352 360 7 13 24 32 37 62 61 35
254 274 280 287 295 326 340 317 299 257 264 7 4 115 317 309 3 349 81 342 258 185 125 108 58 87 101 107 305 293 28 44 46 38 41 32 36 30 25 16 19 20 22 21 18 12 2 9 21 25 17 18 16 11 8 6 7 26 42 47 38 41 43 41 45 58 66 63 73 94 81 68 39 15 11 14 23 21 34 22 30 42 48 40 53
240 251 263 292 298 289 236 278 294 319 58 51 27 9 323 304 267 257 146 181 217 125 73 45 39 29 46 155 205 38 52 42 42 42 47 45 41 33 31 33 27 29 26 31 21 16 8 15 19 17 20 29 20 24 17 13 16 28 40 63 69 60 56 49 48 45 39 38 53 86 121 135 156 169 165 159 38 51 46 42 36 37 42 63 47
258 255 261 272 279 292 307 262 246 88 67 26 203 190 216 286 24 104 188 191 168 149 56 49 43 47 49 45 43 45 55 63 57 59 57 57 52 46 40 41 40 36 37 39 36 25 23 21 18 20 21 31 18 38 50 41 37 46 40 32 36 47 43 40 37 33 19 29 48 50 52 72 76 68 93 152 157 168 120 100 79 65 66 61 62
266 255 261 278 279 272 262 269 92 87 107 223 235 210 233 24 212 131 176 221 338 24 82 66 51 40 45 50 57 59 60 66 68 64 62 64 65 62 50 40 36 37 42 37 42 57 41 19 29 28 17 26 24 21 44 56 56 46 47 53 40 39 48 46 35 36 16 358 18 23 45 58 55 47 301 339 50 39 53 46 57 55 53 50 43
270 269 276 272 287 293 344 310 296 103 87 299 258 258 294 263 247 123 91 6 352 110 119 98 95 91 96 91 79 67 74 74 75 81 72 62 53 51 37 26 12 38 49 45 30 36 55 39 21 19 24 11 15 21 15 34 40 53 54 44 38 17 11 346 1 31 25 17 360 21 7 24 31 38 26 20 49 59 57 54 59 64 58 51 52
236 239 245 270 276 266 271 208 118 168 139 167 231 262 256 247 210 200 162 174 217 178 130 138 123 121 133 119 119 118 112 101 97 81 58 48 53 70 49 25 7 21 65 59 54 37 29 38 14 18 14 36 11 14 13 10 31 29 32 44 36 9 347 338 347 39 21 5 23 9 14 24 29 34 35 26 28 37 40 38 33 42 49 56 50
233 242 258 254 273 282 264 241 176 50 149 166 176 241 224 224 201 188 186 214 213 187 169 157 161 148 129 125 125 125 126 146 115 116 98 79 54 60 70 41 23 20 37 43 47 42 39 48 21 27 17 20 25 12 32 22 16 31 26 31 9 357 350 341 333 360 319 288 27 31 48 45 50 51 40 27 31 39 51 38 38 32 40 47 51
235 221 229 244 245 265 264 289 270 165 147 172 219 228 232 218 188 189 210 216 198 195 182 179 167 163 156 159 187 188 150 136 163 133 94 48 53 50 48 57 35 26 36 28 32 38 29 37 47 34 39 31 28 33 44 38 32 24 25 11 359 356 352 334 321 336 340 8 19 51 32 37 27 37 38 30 23 32 17 29 7 23 32 34 41
258 239 230 233 254 262 257 236 247 178 172 171 196 216 212 232 202 188 206 214 212 197 191 175 155 160 194 169 192 207 207 227 199 202 152 113 87 82 49 32 28 11 56 38 18 36 51 34 31 32 46 51 35 42 51 47 39 31 13 5 7 359 347 342 336 336 335 337 317 15 60 40 26 25 22 12 347 46 43 4 6 2 22 36 32